Location: Caltech
(34.1382°N, 118.1253°W)
Time: 13:36:18
(UTC-08:00)

Transit 2A - Visible Passes

Search period start: 06 March 2015 00:00
Search period end: 16 March 2015 01:00
Orbit: 592 x 970 km, 66.7° (Epoch: 05 March)

Date Brightness Start Highest point End Pass type
(mag) Time Alt. Az. Time Alt. Az. Time Alt. Az.
06 Mar 8.7 02:39:30 18° NE 02:40:23 19° NE 02:44:42 10° E visible
06 Mar 6.2 04:20:15 22° NNW 04:24:28 73° WSW 04:30:17 10° SSE visible
06 Mar 7.5 18:53:48 10° SW 18:59:08 42° WNW 19:04:56 10° NNE visible
07 Mar 6.3 03:50:39 79° NE 03:50:44 79° ENE 03:56:37 10° SSE visible
07 Mar 7.9 05:31:22 12° W 05:33:18 13° WSW 05:35:38 10° SW visible
07 Mar 6.9 18:19:45 10° SW 18:25:16 61° WNW 18:31:21 10° NNE visible
07 Mar 9.3 20:09:03 10° NW 20:10:05 10° NW 20:10:46 10° NNW visible
08 Mar 8.1 04:20:48 21° SE 04:20:48 21° SE 04:22:43 10° SE visible
08 Mar 7.7 06:01:32 17° SW 06:01:32 17° SW 06:03:45 10° SSW visible
08 Mar 9.0 20:32:35 10° WNW 20:35:52 14° NW 20:39:00 10° NNW visible
09 Mar 8.8 19:57:26 10° W 20:01:44 20° NW 20:06:03 10° N visible
10 Mar 8.4 19:22:45 10° WSW 19:27:40 27° NW 19:32:49 10° N visible
13 Mar 9.0 19:27:33 10° WNW 19:30:29 13° NW 19:33:11 10° NNW visible
